Presure
195 227 218 259 251 273 276 272 272 266 245 240 237 253 410 359 323 290 270 243 236 244 246 232 222 212 209 219 196 206 211 206 206 212 205 209 208 214
236 229 257 253 261 277 264 265 262 249 242 228 244 355 362 372 306 287 267 247 253 236 237 231 228 247 227 234 213 196 224 217 211 202 202 211 213 223
248 252 249 261 278 264 254 259 248 239 230 234 242 381 336 323 291 280 263 242 237 249 254 228 246 223 232 228 213 218 229 239 221 208 208 208 228 220
250 246 262 283 264 252 254 252 243 244 229 243 241 256 360 292 282 279 253 253 253 264 238 228 229 241 230 241 231 233 237 197 198 235 222 220 223 219
239 251 279 269 256 248 251 251 239 241 227 239 235 241 244 297 283 269 268 253 253 250 245 252 245 243 240 231 239 234 240 226 222 236 226 224 226 219
249 274 263 254 242 246 242 245 231 243 244 233 231 223 232 234 292 274 269 269 266 256 262 253 258 252 244 247 238 242 240 241 232 221 236 236 218 220
267 253 268 242 242 254 244 238 229 248 245 239 234 231 217 222 225 244 267 253 260 262 268 249 265 253 254 253 251 240 238 244 224 225 228 230 236 231
254 246 241 249 243 246 238 235 239 248 254 248 242 233 252 218 206 218 215 223 220 241 260 234 241 235 252 249 249 246 253 253 249 248 254 250 251 252
246 249 236 247 263 216 238 233 238 245 242 239 241 245 245 226 249 244 210 230 215 218 217 215 214 217 224 229 234 232 233 235 236 238 237 239 239 240
274 273 243 242 221 231 234 233 240 226 205 229 251 251 200 254 247 243 205 236 220 218 226 228 175 243 248 247 241 241 240 236 234 234 236 243 252 253
290 244 208 218 234 233 238 243 236 205 203 256 253 259 258 250 242 238 247 247 246 242 241 241 249 252 261 267 260 253 249 250 256 260 267 323 319 148
239 214 223 232 215 232 236 232 238 249 258 261 227 250 249 251 252 254 253 261 267 266 270 261 263 286 295 384 324 314 305 292 281 290 287 393 386 382
230 232 231 212 217 233 236 247 256 259 258 243 240 238 235 243 242 259 267 272 270 273 278 251 290 338 281 270 279 306 339 355 337 333 378 362 355 349
237 228 223 243 250 252 258 261 247 238 237 238 237 238 239 247 260 267 270 271 274 290 254 316 284 268 293 308 346 370 353 317 319 319 360 338 327 325
268 265 261 254 259 263 242 238 231 228 225 227 229 233 241 253 267 271 274 279 280 261 314 274 276 303 350 336 301 305 302 304 311 318 352 333 316 309
266 262 258 240 235 230 226 224 223 226 230 228 235 239 249 266 271 276 278 271 267 304 269 294 353 332 308 359 352 332 324 315 316 332 306 337 328 299
230 227 224 219 215 220 226 227 219 221 226 231 241 250 269 274 278 281 268 306 287 266 297 341 307 336 339 350 286 292 336 327 322 332 303 341 339 333
223 219 216 222 224 226 227 222 222 227 231 240 245 271 279 278 280 269 308 280 265 291 327 327 334 333 366 352 302 308 343 333 328 327 318 310 339 339
215 219 220 221 226 232 226 224 228 232 239 249 269 280 286 284 267 304 274 284 288 333 320 350 325 373 368 351 345 352 347 339 331 326 328 312 318 340
223 231 226 225 226 225 226 229 235 242 254 275 281 278 269 273 297 273 275 287 347 302 318 329 338 376 378 421 437 361 359 351 339 330 329 322 319 332
233 217 224 226 225 229 236 239 249 269 281 283 279 275 285 303 283 270 285 378 305 317 322 334 338 379 400 498 476 249 217 362 356 340 333 335 327 348
246 228 222 230 235 238 248 263 287 287 286 281 294 299 311 275 270 283 319 320 328 324 327 340 325 351 383 456 508 442 374 369 372 361 337 338 354 356
221 227 229 233 244 256 293 288 282 284 282 290 334 315 279 267 280 302 380 324 335 334 343 347 359 356 336 384 389 396 387 379 377 377 373 377 377 381
Wind_Speed
122 128 128 99 104 93 82 80 77 72 71 74 77 69 53 55 48 61 60 71 76 69 62 76 76 76 73 72 79 75 75 76 79 81 84 83 81 85
120 120 97 99 97 79 78 75 73 74 72 71 79 51 38 42 42 51 63 70 73 73 76 81 80 73 76 73 76 78 80 83 82 84 79 90 90 93
102 96 98 96 75 74 76 71 71 72 70 73 73 37 44 36 45 53 66 71 74 75 78 74 82 75 74 79 80 78 86 81 86 88 91 89 92 87
92 93 95 72 72 73 72 70 68 69 68 69 67 63 31 39 49 59 62 63 67 66 72 69 72 81 78 86 85 85 80 78 80 90 94 92 92 89
91 93 75 69 70 70 70 67 66 67 65 65 62 59 55 48 58 48 60 65 68 73 74 74 80 82 83 85 83 80 83 84 84 88 89 90 95 93
91 74 72 68 71 69 68 64 63 67 65 61 59 58 53 50 58 57 52 69 77 76 76 74 74 79 82 83 88 87 87 89 90 85 90 94 90 94
67 72 65 68 69 65 66 63 63 65 63 61 57 51 50 49 45 41 54 48 63 59 58 59 69 69 72 76 85 83 84 91 83 86 90 92 97 98
66 69 65 66 66 64 62 62 63 62 62 62 60 57 53 46 47 45 47 43 45 51 64 46 58 54 71 72 75 78 83 86 88 92 97 97 99 101
66 65 64 63 59 59 61 60 61 60 60 60 61 59 58 54 49 48 49 47 50 51 53 57 60 62 65 68 71 73 76 80 84 86 88 92 94 96
58 55 59 57 58 60 60 60 60 61 62 61 60 59 61 52 53 53 60 55 60 61 61 64 51 68 72 76 78 81 83 86 88 91 93 97 101 102
48 55 55 57 60 59 59 60 61 64 64 60 59 57 56 56 58 59 59 60 62 65 67 70 72 74 78 83 86 88 88 92 96 101 104 98 99 63
53 54 56 58 57 60 60 62 64 62 61 59 66 59 60 62 64 65 65 66 65 67 68 71 73 76 77 69 73 76 79 82 85 85 87 53 54 54
54 54 56 58 60 61 63 63 62 59 58 62 64 65 68 69 70 73 72 71 70 69 70 72 75 65 70 76 79 78 73 64 64 63 48 50 51 51
53 55 57 57 57 58 58 58 58 62 64 66 68 70 72 75 76 75 74 72 73 74 71 69 70 75 75 77 74 67 58 57 57 56 45 47 49 48
46 49 50 52 53 53 55 58 62 66 70 72 74 75 78 81 81 79 76 76 75 74 70 72 75 75 68 65 68 69 63 58 55 52 45 45 46 45
43 46 47 50 54 57 61 64 68 70 72 75 78 80 83 83 80 78 77 75 77 71 74 77 70 66 67 64 59 65 64 60 59 51 47 44 45 41
46 50 54 58 62 64 66 67 71 74 77 79 81 84 84 81 79 76 75 74 73 77 79 69 69 65 64 57 58 62 59 59 57 53 45 45 46 43
52 55 59 61 64 65 67 71 74 78 80 82 84 84 79 78 75 75 72 70 75 78 72 71 65 64 58 54 58 60 56 57 55 51 49 42 45 47
58 59 63 66 67 68 71 74 77 80 83 86 85 78 75 73 74 73 69 73 76 68 70 64 65 60 52 50 55 54 54 57 52 51 49 43 41 48
62 63 65 67 69 72 75 78 81 84 87 82 77 74 75 74 71 67 71 73 64 68 66 65 64 55 50 48 46 57 56 51 50 48 49 44 42 43
64 66 68 70 73 76 79 82 85 85 77 74 75 75 73 69 63 67 70 61 62 61 61 60 58 53 47 46 43 31 27 51 47 44 44 43 41 40
66 67 71 74 77 80 83 87 77 74 72 73 71 70 67 60 63 66 70 59 59 56 54 53 44 46 43 36 40 38 38 44 44 41 38 39 39 34
67 70 73 78 82 85 75 74 73 72 71 68 66 63 58 60 61 66 53 57 53 51 47 46 45 39 27 30 24 22 25 31 36 35 31 33 29 27
Wind_Direction
300 302 302 304 304 307 305 306 308 310 309 309 309 308 276 258 244 236 244 250 263 252 246 249 258 264 263 258 271 268 266 270 270 269 274 277 279 281
301 301 302 304 306 304 305 306 308 310 312 311 313 306 290 253 220 230 230 245 244 255 244 250 260 256 260 256 261 268 261 261 263 271 273 272 275 276
300 300 302 304 303 303 304 305 307 310 311 314 317 322 290 221 221 223 227 245 256 252 239 258 250 263 257 253 262 263 261 256 255 264 266 272 270 271
298 300 303 301 300 301 303 304 306 310 311 315 319 327 286 223 229 223 243 246 251 234 260 266 266 249 267 253 258 260 260 267 268 254 258 264 265 267
297 300 300 299 298 301 302 303 307 310 311 315 319 324 332 234 237 260 232 256 254 257 263 260 263 259 260 263 262 258 255 258 260 259 262 264 265 269
297 297 296 296 299 301 301 303 307 308 309 312 317 321 325 331 250 266 269 258 258 267 269 273 260 256 258 256 259 261 259 260 261 265 262 261 268 269
293 293 295 296 299 298 299 304 306 308 309 310 312 315 317 319 319 300 269 282 276 275 267 283 255 261 262 261 260 261 262 262 266 266 265 266 266 267
290 291 294 295 297 296 299 303 305 308 310 311 312 313 316 311 310 308 307 306 302 285 278 291 281 279 274 276 274 270 264 265 266 268 266 267 268 269
289 290 294 295 293 297 299 302 304 307 307 309 311 312 313 312 311 308 305 299 298 295 293 290 289 288 282 279 275 274 272 271 270 270 270 269 269 268
289 288 292 293 295 297 299 302 304 303 307 308 308 309 311 309 306 304 306 298 299 297 291 287 287 281 279 276 275 274 273 273 274 275 275 273 271 270
286 288 291 293 296 297 302 302 301 303 305 304 306 309 309 305 302 299 297 294 291 289 288 286 284 281 279 276 275 276 277 276 274 273 272 273 272 272
286 289 292 295 296 301 300 298 299 303 304 307 304 307 307 307 306 304 301 299 297 295 293 289 287 285 284 288 280 279 277 275 274 274 274 278 277 274
286 290 293 292 296 298 298 299 301 304 306 305 306 306 304 307 306 308 306 305 302 299 295 292 292 291 287 284 283 284 285 282 281 280 279 279 277 273
288 290 292 294 296 296 297 300 303 304 305 306 307 308 309 310 310 309 307 305 302 300 297 298 294 292 294 293 292 290 283 282 283 280 279 277 275 274
292 293 294 294 296 298 300 302 303 303 303 304 306 308 310 311 310 309 308 306 304 301 302 298 298 299 297 294 291 288 287 285 283 280 279 272 269 270
295 295 298 299 302 302 301 302 303 304 306 307 308 309 310 310 309 308 307 306 304 304 302 304 302 300 296 293 288 284 284 283 283 279 277 275 268 265
300 300 301 301 300 301 303 304 303 305 307 308 309 310 309 308 308 308 307 309 306 305 308 306 304 302 300 291 288 289 279 278 278 279 274 279 276 270
300 300 299 301 301 304 304 303 305 305 306 308 309 309 307 307 308 308 310 307 307 311 309 308 305 305 298 289 286 287 275 272 273 274 273 277 279 276
298 301 301 302 304 304 303 304 304 306 307 308 308 307 307 307 308 312 308 311 313 312 313 313 310 306 298 289 285 277 268 268 268 270 271 274 276 277
301 304 302 302 302 303 304 304 306 306 308 306 305 306 307 307 311 309 312 315 314 314 315 315 316 311 304 286 269 272 269 262 262 264 267 271 274 274
302 299 301 302 303 304 304 305 306 306 304 304 304 305 307 310 310 311 316 314 315 315 317 317 320 318 312 281 274 294 302 268 264 264 268 271 275 275
304 302 302 304 304 305 305 306 304 304 303 303 306 307 308 309 312 315 318 316 317 317 318 318 323 328 323 305 278 273 265 268 270 270 274 276 275 269
300 302 303 305 304 307 305 304 302 303 302 305 309 308 310 312 315 319 314 318 317 317 319 318 318 324 344 340 327 300 281 277 280 283 283 276 273 262